[[{"header":{"parameterUnit":"m.s-1","parameterCategory":1,"la1":30.2991,"la2":30.254,"lo1":-89.0895,"lo2":-89.0444,"dx":0.0017,"dy":0.0017,"nx":28,"ny":28,"refTime":"2022-12-18T15:00:00:Z","depth":0,"parameterNumber":2,"parameterNumberName":"U-component_of_WINDS"},"data":[0,0,0,0,0,0,0,0,0,0,0,0,0,0,0,0,0,0,0,0,0,0,0,0,0,0,0,0,0,0,0,0,0,0,0,0,0,0,0,0,0,0,0,0,0,0,0,0,0,0,0,0,0,0,0,0,0,0,-4.0675,-4.0676,0,-4.0743,-4.0744,-4.0745,-4.0607,-4.0602,-4.0598,-4.0594,-4.0664,-4.067,-4.0676,0,0,0,0,0,0,0,0,0,0,0,0,0,-4.0424,-4.0429,-4.0675,-4.0676,-4.0677,-4.0743,-4.0744,-4.0745,-4.0608,-4.0602,-4.0597,-4.0591,-4.0662,-4.067,-4.0677,0,0,0,0,0,0,0,0,0,0,0,0,0,-4.0517,-4.0431,-4.0675,-4.0616,-4.0612,-4.0743,-4.0744,-4.0745,-4.0609,-4.0602,-4.0595,-4.0589,-4.066,-4.0669,-4.0678,-4.087,0,0,-4.0706,-4.071,0,0,0,0,0,0,0,0,-4.0511,-4.0526,-4.0624,-4.062,-4.0615,-4.066,-4.0681,-4.0787,-4.0611,-4.061,-4.0593,-4.0586,-4.0668,-4.0676,-4.0704,-4.0873,-4.0876,-4.0707,-4.0712,-4.0716,-4.0719,0,0,0,0,0,0,0,-4.0505,-4.0522,-4.0702,-4.0625,-4.062,-4.0586,-4.0591,-4.0701,-4.0676,-4.0609,-4.06,-4.0609,-4.0665,-4.0696,-4.0705,-4.0877,-4.0706,-4.0715,-4.072,-4.0724,-4.1204,-4.1211,0,0,0,0,0,0,-4.0506,-4.0518,-4.07,-4.0704,-4.0546,-4.0596,-4.0602,-4.0652,-4.0675,-4.0672,-4.0615,-4.0603,-4.0683,-4.0694,-4.0707,-4.0931,-4.0716,-4.0725,-4.073,-4.1197,-4.1206,-4.1214,0,0,0,0,0,0,-4.0501,-4.0524,-4.0697,-4.0608,-4.0628,-4.0607,-4.0665,-4.0657,-4.0688,-4.0679,-4.0674,-4.0652,-4.0678,-4.0694,-4.083,-4.0932,-4.0729,-4.0737,-4.1189,-4.12,-4.121,-4.1384,0,0,0,0,0,0,-4.0495,-4.0523,-4.0597,-4.0611,-4.0633,-4.082,-4.0671,-4.0664,-4.0704,-4.0689,-4.0712,-4.0709,-4.0674,-4.0817,-4.0839,-4.0941,-4.0744,-4.1179,-4.1194,-4.1207,-4.1369,-4.14,-4.1426,0,0,0,0,0,-4.0486,-4.0644,-4.0601,-4.0624,-4.0725,-4.0827,-4.0839,-4.0796,-4.0713,-4.0786,-4.078,-4.0708,-4.0917,-4.0832,-4.0856,-4.0962,-4.1173,-4.119,-4.1206,-4.1356,-4.1394,-4.1425,0,0,0,0,0,0,-4.0643,-4.0645,-4.0597,-4.0764,-4.0796,-4.0803,-4.0894,-4.0837,-4.0893,-4.0876,-4.082,-4.0826,-4.0973,-4.0981,-4.0886,-4.1147,-4.1031,-4.1053,-4.1137,-4.1173,-4.12,-4.1196,-4.0752,0,0,0,0,0,-4.0697,-4.078,-4.0776,-4.0924,-4.0942,-4.0916,-4.0959,-4.0922,-4.0953,-4.0966,-4.097,-4.1002,-4.1074,-4.1124,-4.119,-4.1369,-4.1371,-4.1453,-4.1482,-4.1505,-4.1525,-4.1617,-4.1654,-4.1268,-4.1268,-4.1267,0,0,-4.0809,-4.082,-4.0876,-4.0955,-4.0976,-4.1062,-4.0928,-4.1026,-4.1089,-4.0981,-4.1109,-4.1113,-4.1145,-4.1303,-4.1372,-4.1314,-4.1631,-4.1526,-4.1544,-4.1552,-4.1638,-4.1675,-4.1707,-4.1279,-4.1277,-4.1275,0,0,-4.1058,-4.1075,-4.1199,-4.1221,-4.1253,-4.1234,-4.1264,-4.1279,-4.1277,-4.1405,-4.1324,-4.1398,-4.1525,-4.155,-4.158,-4.1835,-4.1771,-4.1858,-4.2006,-4.2097,-4.2128,-4.2154,-4.2244,-4.2277,-4.1878,-4.1878,-4.1879,0,-4.1194,-4.1321,-4.127,-4.1372,-4.1409,-4.1313,-4.1437,-4.1461,-4.1514,-4.1541,-4.1474,-4.1629,-4.1645,-4.1806,-4.1868,-4.1895,-4.1926,-4.1856,-4.2128,-4.2154,-4.2178,-4.2263,-4.2297,-4.1889,-4.1887,-4.1886,-4.1885,0,-4.1486,-4.1575,-4.1671,-4.1723,-4.1769,-4.1883,-4.1847,-4.1901,-4.1859,-4.1847,-4.1977,-4.1991,-4.2057,-4.2093,-4.2054,-4.2248,-4.221,-4.2137,-4.2018,-4.2226,-4.2305,-4.2337,-4.1903,-4.19,-4.1897,-4.1894,0,0,-4.1838,-4.1858,-4.1894,-4.1915,-4.1942,-4.2009,-4.2116,-4.2181,-4.2227,-4.2266,-4.2353,-4.2461,-4.2392,-4.2426,-4.2389,-4.2469,-4.2667,-4.2384,-4.2384,-4.2436,-4.288,-4.2936,-4.2974,-4.2624,-4.263,-4.2635,-4.2877,0,-4.2084,-4.2269,-4.2224,-4.2407,-4.2487,-4.2396,-4.2489,-4.2515,-4.2506,-4.2572,-4.2561,-4.2638,-4.2541,-4.2561,-4.2636,-4.2628,-4.2756,-4.2609,-4.2705,-4.2709,-4.27,-4.3015,-4.3075,-4.3303,-4.2908,-4.2913,-4.2917,0,-4.2397,-4.2445,-4.2636,-4.2647,-4.2679,-4.2764,-4.2817,-4.2882,-4.2909,-4.2896,-4.2932,-4.2878,-4.2982,-4.2862,-4.3005,-4.2906,-4.2942,-4.2944,-4.2951,-4.2959,-4.2826,-4.3031,-4.3375,-4.3409,-4.2965,-4.2961,-4.2958,0,-4.2633,-4.2747,-4.2875,-4.2896,-4.2912,-4.2973,-4.2983,-4.3002,-4.3043,-4.3089,-4.3115,-4.3173,-4.3206,-4.3252,-4.3214,-4.313,-4.3362,-4.3239,-4.3354,-4.3355,-4.3408,-4.3405,-4.3761,-4.3431,-4.3431,-4.343,-4.3429,0,-4.2913,-4.3033,-4.2981,-4.306,-4.3191,-4.3137,-4.3268,-4.3267,-4.3284,-4.336,-4.3285,-4.3358,-4.3304,-4.3372,-4.3343,-4.3464,-4.3479,-4.3471,-4.3462,-4.3478,-4.3479,-4.3501,-4.3485,-4.3439,-4.3437,-4.3435,-4.3434,0,-4.32,-4.317,-4.3303,-4.3307,-4.331,-4.3406,-4.3409,-4.3481,-4.3464,-4.3562,-4.3581,-4.3556,-4.3631,-4.3598,-4.3678,-4.3658,-4.3814,-4.3784,-4.3805,-4.3798,-4.3913,-4.3903,-4.4297,-4.4345,-4.3984,-4.3988,-4.3991,0,-4.3381,-4.347,-4.3483,-4.3528,-4.3542,-4.3616,-4.3656,-4.3606,-4.3651,-4.3686,-4.3754,-4.3823,-4.3875,-4.4,-4.3988,-4.4048,-4.4019,-4.4153,-4.4028,-4.404,-4.402,-4.4015,-4.4023,-4.4178,-4.4182,-4.4186,-4.4189,0,-4.3704,-4.3684,-4.3744,-4.38,-4.3849,-4.3891,-4.3925,-4.3967,-4.3917,-4.3971,-4.4047,-4.4088,-4.4168,-4.4237,-4.4289,-4.4297,-4.4235,-4.4228,-4.4257,-4.4275,-4.4283,-4.4279,-4.3873,-4.4219,-4.4216,-4.4214,-4.4212,-4.4211,-4.3943,-4.4017,-4.4036,-4.4106,-4.4126,-4.416,-4.4227,-4.4218,-4.428,-4.4341,-4.4307,-4.4396,-4.4416,-4.448,-4.4497,-4.4564,-4.4511,-4.4554,-4.4565,-4.4577,-4.4591,-4.4272,-4.4573,-4.4573,-4.4572,-4.4571,-4.457,0,-4.4261,-4.4268,-4.4332,-4.4382,-4.4436,-4.4371,-4.4405,-4.4455,-4.4533,-4.4558,-4.461,-4.4696,-4.4762,-4.4754,-4.4814,-4.4869,-4.4842,-4.4886,-4.4882,-4.4884,-4.4636,-4.4604,-4.4907,-4.4907,-4.4907,-4.4907,-4.4907,-4.4907,-4.4433,-4.4555,-4.4537,-4.4667,-4.4673,-4.4758,-4.4783,-4.4813,-4.4832,-4.4931,-4.4985,-4.4979,-4.499,-4.5049,-4.5106,-4.5101,-4.5126,-4.5182,-4.5167,-4.4936,-4.4902,-4.487,-4.484,-4.5188,-4.5188,-4.541,-4.5412,-4.5413]},{"header":{"parameterUnit":"m.s-1","parameterCategory":1,"la1":30.2991,"la2":30.254,"lo1":-89.0895,"lo2":-89.0444,"dx":0.0017,"dy":0.0017,"nx":28,"ny":28,"refTime":"2022-12-18T15:00:00:Z","depth":0,"parameterNumber":3,"parameterNumberName":"V-component_of_WINDS"},"data":[0,0,0,0,0,0,0,0,0,0,0,0,0,0,0,0,0,0,0,0,0,0,0,0,0,0,0,0,0,0,0,0,0,0,0,0,0,0,0,0,0,0,0,0,0,0,0,0,0,0,0,0,0,0,0,0,0,0,-4.4129,-4.413,0,-4.4215,-4.4216,-4.4217,-4.4159,-4.4157,-4.4154,-4.4152,-4.4236,-4.4241,-4.4246,0,0,0,0,0,0,0,0,0,0,0,0,0,-4.3909,-4.3914,-4.4129,-4.413,-4.4131,-4.4215,-4.4216,-4.4217,-4.416,-4.4157,-4.4154,-4.4151,-4.4235,-4.424,-4.4246,0,0,0,0,0,0,0,0,0,0,0,0,0,-4.4001,-4.3915,-4.4129,-4.4113,-4.4112,-4.4215,-4.4216,-4.4217,-4.4161,-4.4157,-4.4153,-4.4149,-4.4233,-4.424,-4.4247,-4.4369,0,0,-4.4268,-4.4271,0,0,0,0,0,0,0,0,-4.3996,-4.4009,-4.4114,-4.4114,-4.4114,-4.4173,-4.417,-4.4268,-4.4162,-4.4142,-4.4152,-4.4147,-4.4218,-4.4226,-4.4251,-4.4373,-4.4376,-4.4269,-4.4273,-4.4276,-4.4278,0,0,0,0,0,0,0,-4.399,-4.4005,-4.4163,-4.4115,-4.4115,-4.4099,-4.4108,-4.4188,-4.4201,-4.4143,-4.414,-4.4151,-4.4217,-4.4244,-4.4252,-4.4378,-4.4269,-4.4275,-4.4279,-4.4282,-4.46,-4.4604,0,0,0,0,0,0,-4.3985,-4.4,-4.416,-4.4165,-4.4044,-4.4106,-4.4116,-4.4157,-4.42,-4.4203,-4.4154,-4.4148,-4.4234,-4.4244,-4.4255,-4.4398,-4.4276,-4.4283,-4.4287,-4.4596,-4.4601,-4.4606,0,0,0,0,0,0,-4.3981,-4.4,-4.4157,-4.4082,-4.41,-4.4114,-4.4161,-4.4161,-4.4188,-4.4208,-4.4209,-4.4179,-4.4231,-4.4245,-4.434,-4.4401,-4.4286,-4.4292,-4.4591,-4.4598,-4.4603,-4.4688,0,0,0,0,0,0,-4.3975,-4.3999,-4.4047,-4.4083,-4.4105,-4.4243,-4.4165,-4.4166,-4.4201,-4.4194,-4.4232,-4.4235,-4.4229,-4.433,-4.4347,-4.4408,-4.4298,-4.4586,-4.4594,-4.4601,-4.468,-4.4696,-4.471,0,0,0,0,0,-4.3967,-4.4067,-4.405,-4.4069,-4.4165,-4.4246,-4.4258,-4.4251,-4.4206,-4.4253,-4.4265,-4.4234,-4.4391,-4.434,-4.4359,-4.4423,-4.4582,-4.4592,-4.4601,-4.4673,-4.4693,-4.471,0,0,0,0,0,0,-4.4037,-4.4072,-4.4053,-4.4168,-4.4205,-4.4236,-4.4296,-4.4273,-4.4322,-4.4313,-4.4301,-4.431,-4.4409,-4.4426,-4.4368,-4.4542,-4.4479,-4.4493,-4.4527,-4.4547,-4.4562,-4.4555,-4.4304,0,0,0,0,0,-4.4066,-4.413,-4.4157,-4.4255,-4.4275,-4.4282,-4.4317,-4.4308,-4.4345,-4.436,-4.4379,-4.4415,-4.4472,-4.4511,-4.4565,-4.4682,-4.4688,-4.4735,-4.475,-4.4762,-4.4774,-4.4834,-4.4855,-4.4637,-4.4637,-4.4637,0,0,-4.4126,-4.4153,-4.4194,-4.427,-4.4297,-4.4362,-4.4296,-4.4368,-4.4415,-4.4371,-4.4462,-4.4477,-4.4516,-4.4622,-4.4669,-4.4639,-4.4836,-4.4775,-4.4784,-4.4789,-4.4846,-4.4867,-4.4885,-4.4643,-4.4642,-4.4641,0,0,-4.4269,-4.4297,-4.4381,-4.4409,-4.4452,-4.4455,-4.4476,-4.4511,-4.4519,-4.461,-4.4577,-4.4632,-4.4732,-4.4761,-4.4788,-4.4938,-4.491,-4.4956,-4.5036,-4.5095,-4.5112,-4.5127,-4.5179,-4.5198,-4.4968,-4.4968,-4.4968,0,-4.4338,-4.4436,-4.4427,-4.4501,-4.4534,-4.4497,-4.458,-4.4608,-4.4666,-4.4688,-4.4653,-4.4776,-4.48,-4.491,-4.4947,-4.4971,-4.4992,-4.4952,-4.5111,-4.5126,-4.514,-4.5189,-4.5208,-4.4973,-4.4973,-4.4972,-4.4972,0,-4.4518,-4.4586,-4.4648,-4.4705,-4.4745,-4.4824,-4.4824,-4.4865,-4.4852,-4.4859,-4.495,-4.4977,-4.5035,-4.5061,-4.5049,-4.5169,-4.5148,-4.5113,-4.5049,-4.5166,-4.5211,-4.523,-4.4981,-4.4979,-4.4978,-4.4976,0,0,-4.4708,-4.4757,-4.478,-4.4804,-4.4847,-4.4898,-4.4973,-4.503,-4.5065,-4.5105,-4.5166,-4.525,-4.5217,-4.5248,-4.5238,-4.529,-4.5404,-4.5247,-4.5248,-4.5274,-4.5536,-4.5562,-4.5584,-4.5386,-4.539,-4.5392,-4.5532,0,-4.4851,-4.4984,-4.4977,-4.5101,-4.5162,-4.5126,-4.5192,-4.5224,-4.5232,-4.5283,-4.5291,-4.535,-4.5302,-4.532,-4.537,-4.538,-4.5456,-4.537,-4.5441,-4.5443,-4.5431,-4.5608,-4.5636,-4.5766,-4.555,-4.5553,-4.5555,0,-4.5037,-4.5083,-4.5214,-4.5244,-4.527,-4.5329,-4.5379,-4.5429,-4.5464,-4.5465,-4.5499,-4.548,-4.5554,-4.5489,-4.5589,-4.553,-4.5559,-4.5568,-4.5572,-4.5578,-4.5506,-4.5616,-4.5808,-4.5827,-4.5583,-4.5581,-4.5579,0,-4.516,-4.5255,-4.5344,-4.5366,-4.5405,-4.5447,-4.5465,-4.5496,-4.5529,-4.5573,-4.5594,-4.5645,-4.5673,-4.5711,-4.5706,-4.566,-4.5807,-4.5742,-4.5808,-4.5808,-4.584,-4.5838,-4.6038,-4.5861,-4.5861,-4.586,-4.586,0,-4.532,-4.5401,-4.54,-4.5455,-4.5543,-4.5533,-4.5619,-4.5632,-4.5659,-4.5714,-4.5687,-4.5739,-4.5729,-4.578,-4.5776,-4.5858,-4.5871,-4.5873,-4.587,-4.5875,-4.5874,-4.5892,-4.5883,-4.5866,-4.5864,-4.5863,-4.5863,0,-4.5473,-4.5476,-4.557,-4.5599,-4.5608,-4.5672,-4.5695,-4.5746,-4.575,-4.582,-4.5836,-4.5843,-4.5902,-4.59,-4.5967,-4.5964,-4.6064,-4.6052,-4.6053,-4.6049,-4.6115,-4.6108,-4.6332,-4.636,-4.6167,-4.6168,-4.617,0,-4.5574,-4.5635,-4.567,-4.5705,-4.5726,-4.5783,-4.5817,-4.5809,-4.5845,-4.5887,-4.5932,-4.5988,-4.6033,-4.6127,-4.6137,-4.6187,-4.6175,-4.625,-4.6182,-4.6184,-4.6174,-4.617,-4.6175,-4.6263,-4.6265,-4.6267,-4.6268,0,-4.5754,-4.5751,-4.5802,-4.5853,-4.5895,-4.5934,-4.597,-4.6,-4.5995,-4.6037,-4.6096,-4.6131,-4.6198,-4.6253,-4.6301,-4.6317,-4.6291,-4.629,-4.6307,-4.6312,-4.6309,-4.6309,-4.6087,-4.6284,-4.6283,-4.6282,-4.6281,-4.628,-4.5882,-4.5934,-4.5966,-4.6023,-4.6049,-4.6083,-4.6131,-4.6141,-4.6192,-4.6246,-4.6237,-4.6304,-4.6333,-4.6395,-4.6415,-4.6465,-4.6438,-4.6465,-4.6471,-4.6477,-4.6483,-4.6302,-4.6474,-4.6474,-4.6473,-4.6473,-4.6472,0,-4.6058,-4.6077,-4.6129,-4.618,-4.6224,-4.6197,-4.6235,-4.6273,-4.6332,-4.6363,-4.6406,-4.6473,-4.6526,-4.654,-4.659,-4.6627,-4.6617,-4.6641,-4.6637,-4.6641,-4.6506,-4.6485,-4.6648,-4.6648,-4.6648,-4.6648,-4.6648,-4.6648,-4.6155,-4.624,-4.6241,-4.6338,-4.6355,-4.642,-4.6444,-4.6474,-4.6498,-4.6575,-4.6618,-4.6627,-4.665,-4.6701,-4.6747,-4.675,-4.6769,-4.6797,-4.6795,-4.6668,-4.6651,-4.6634,-4.6614,-4.6802,-4.6802,-4.6925,-4.6927,-4.6927]}]]